This is the latest recevied weather packets stored in our database for station/object N9CQS-15. If no packets are shown the sender has not sent any weather packets the latest 10 day(s).
| Time | Temp. | Humidity | Pressure | Rain* | Wind** | Luminosity | Snow |
|---|---|---|---|---|---|---|---|
| 1777966742 | 11.67° C | 91% | 1006.4 hPa | 0 mm | - | - | - |
| 1777966142 | 11.67° C | 91% | 1006.3 hPa | 0 mm | - | - | - |
| 1777965542 | 11.67° C | 91% | 1006.1 hPa | 0 mm | - | - | - |
| 1777964941 | 11.67° C | 91% | 1006 hPa | 0 mm | - | - | - |
| 1777964341 | 11.67° C | 91% | 1005.9 hPa | 0 mm | - | - | - |
| 1777963741 | 11.67° C | 91% | 1005.8 hPa | 0 mm | - | - | - |
| 1777963142 | 11.67° C | 91% | 1005.9 hPa | 0 mm | - | - | - |
| 1777962542 | 12.22° C | 91% | 1005.2 hPa | 0 mm | - | - | - |
| 1777961942 | 12.22° C | 91% | 1004.9 hPa | 0 mm | - | - | - |
| 1777961342 | 12.22° C | 91% | 1004 hPa | - | - | - | - |
| 1777960742 | 12.22° C | 91% | 1003.3 hPa | 0 mm | - | - | - |
| 1777960142 | 12.78° C | 91% | 1005.2 hPa | 0.25 mm | - | - | - |
| 1777959542 | 12.78° C | 91% | 1005.9 hPa | 0.25 mm | - | - | - |
| 1777958942 | 12.78° C | 90% | 1006.3 hPa | 0.25 mm | - | - | - |
| 1777958342 | 13.33° C | 89% | 1007.6 hPa | 0.25 mm | - | - | - |
| 1777957742 | 13.89° C | 88% | 1006.4 hPa | 6.35 mm | - | - | - |
| 1777957141 | 14.44° C | 88% | 1004.8 hPa | 0.25 mm | - | - | - |
| 1777956542 | 14.44° C | 86% | 1005 hPa | 1.02 mm | - | - | - |
| 1777955942 | 15° C | 82% | 1005.4 hPa | 1.02 mm | - | - | - |
| 1777955342 | 15.56° C | 72% | 1004 hPa | 0 mm | - | - | - |
| 1777954741 | 16.67° C | 68% | 1004.2 hPa | 0.25 mm | - | - | - |
| 1777954141 | 17.22° C | 62% | 1004.1 hPa | 0 mm | - | - | - |
| 1777953542 | 18.33° C | 70% | 1003 hPa | 0 mm | - | - | - |
| 1777952942 | 17.78° C | 71% | 1002.6 hPa | 0 mm | - | - | - |
| 1777952341 | 17.78° C | 70% | 1002.8 hPa | 0 mm | - | - | - |
* Rain latest hour (hover to see other rain measurements)
** Current wind speed in m/s (hover to see current wind gust speed)